• MPC Preparation (Info)

  • MPEC 2023-G04 : 2023 FQ13

    The following Minor Planet Electronic Circular may be linked-to from your own Web pages, but must not otherwise be redistributed electronically.

    A form allowing access to any MPEC is at the bottom of this page.


    Read MPEC 2023-G03 Read MPEC 2023-G05


    M.P.E.C. 2023-G04                                 Issued 2023 April 1, 08:54 UT
    
         The Minor Planet Electronic Circulars contain information on unusual
             minor planets, routine data on comets and natural satellites,
             and occasional editorial announcements.  They are published
        on behalf of Division F of the International Astronomical Union by the
              Minor Planet Center, Smithsonian Astrophysical Observatory,
                              Cambridge, MA 02138, U.S.A.
    			  
                 Prepared using the Tamkin Foundation Computer Network
    
                                  MPC@CFA.HARVARD.EDU
                URL https://www.minorplanetcenter.net/    ISSN 1523-6714
    
                                    2023 FQ13                                
    
    
    Observations:
         K23F13Q* C2023 03 28.38768613 43 02.405+30 33 53.68         21.07wUEG004F52
         K23F13Q  C2023 03 28.39911913 42 54.440+30 33 50.17         20.91wUEG004F52
         K23F13Q  C2023 03 28.41063413 42 46.439+30 33 46.37         21.19wUEG004F52
         K23F13Q  C2023 03 28.52051213 41 29.714+30 33 03.80         20.51GVEG004F51
         K23F13Q  C2023 03 28.52115013 41 29.261+30 33 03.46         20.92GVEG004F51
         K23F13Q  C2023 03 28.52179113 41 28.823+30 33 03.17         20.92GVEG004F51
         K23F13Q  C2023 03 28.52217113 41 28.521+30 33 03.13               VEG004F51
         K23F13Q KC2023 03 29.18267513 33 57.98 +30 27 04.8          20.9 VVEG004H21
         K23F13Q KC2023 03 29.18827013 33 54.08 +30 27 01.4          20.7 VVEG004H21
         K23F13Q KC2023 03 29.19805713 33 47.18 +30 26 56.3          21.2 VVEG004H21
         K23F13Q KC2023 03 29.22401313 33 29.891+30 26 41.39         20.86GVEG004I52
         K23F13Q KC2023 03 29.22592713 33 28.544+30 26 40.70         20.86GVEG004I52
         K23F13Q KC2023 03 29.22784013 33 27.212+30 26 38.44         21.38GVEG004I52
         K23F13Q KC2023 03 29.22974513 33 25.830+30 26 37.82         21.49GVEG004I52
         K23F13Q KC2023 03 30.23578613 21 47.376+30 13 34.50         20.77GVEG004I52
         K23F13Q KC2023 03 30.23810513 21 45.677+30 13 32.77         20.77GVEG004I52
         K23F13Q KC2023 03 30.24042113 21 44.028+30 13 30.14         20.93GVEG004I52
         K23F13Q KC2023 03 30.24273713 21 42.340+30 13 28.60         20.62GVEG004I52
         K23F13Q DC2023 04 01.21643 12 58 40.02 +29 32 55.7          21.4 GVEG004695
         K23F13Q DC2023 04 01.22061 12 58 37.02 +29 32 49.7          21.3 GVEG004695
         K23F13Q DC2023 04 01.22477 12 58 34.08 +29 32 43.5          21.2 GVEG004695
    
    Observer details:
    695 Kitt Peak.  Observer R. A. Mastaler.  2.3-m f/9 reflector + CCD.
    F51 Pan-STARRS 1, Haleakala.  Observers J. Bulger, K. Chambers, T. Lowe, A.
        Schultz, I. Smith.  Measurers S. Chastel, J. Fairlamb, M. Huber, Y.
        Ramanjooloo, R. Wainscoat, R. Weryk.  1.8-m Ritchey-Chretien + CCD.
    F52 Pan-STARRS 2, Haleakala.  Observers J. Bulger, T. Lowe, A. Schultz, I.
        Smith.  Measurers K. Chambers, S. Chastel, T. de Boer, J. Fairlamb, H.
        Gao, M. Huber, C.-C. Lin, E. Magnier, Y. Ramanjooloo, R. Wainscoat, R.
        Weryk.  1.8-m Ritchey-Chretien + CCD.
    H21 Astronomical Research Observatory, Westfield.  Observer R. Holmes.
        Measurers T. Linder, R. Holmes, L. Horn.  0.76-m f/3.0 astrograph + CCD.
    I52 Steward Observatory, Mt. Lemmon Station.  Observer J. B. Fazekas.
        Measurers E. J. Christensen, D. Fay, J. B. Fazekas, D. C. Fuls, A. R.
        Gibbs, A. D. Grauer, H. Groeller, J. K. Hogan, R. A. Kowalski, S. M.
        Larson, G. J. Leonard, D. Rankin, R. L. Seaman, A. Serrano, F. C. Shelly,
        K. W. Wierzchos.  1.0-m prime focus + CCD.
    
    Orbital elements:
    2023 FQ13                                                Earth MOID = 0.1488 AU
    Epoch 2023 Feb. 25.0 TT = JDT 2460000.5                 Veres                   
    M 115.08595              (2000.0)            P               Q                  
    n   1.49149644     Peri.  352.76239     +0.97262068     -0.16542803             
    a   0.7586729      Node    19.26031     +0.23020446     +0.58952399             
    e   0.5644773      Incl.   29.65867     +0.03185774     +0.79062952             
    P   0.66           H   22.83          G   0.15           U   7                  
    Residuals in seconds of arc
    230328 F52  0.2+  0.1-    230329 H21 (0.1-  0.8+)   230330 I52  0.6+  0.1-
    230328 F52  0.2-  0.0     230329 H21  0.2+  0.5+    230330 I52  0.1-  0.2+
    230328 F52  0.1-  0.0     230329 H21 (0.2-  0.9+)   230330 I52  0.1-  0.4-
    230328 F51  0.1+  0.1+    230329 I52  0.0   0.1+    230330 I52  0.6-  0.0
    230328 F51  0.0   0.0     230329 I52  0.0   0.5+    230401 695  0.1+  0.3-
    230328 F51  0.1+  0.0     230329 I52  0.1+  0.7-    230401 695  0.2-  0.2-
    230328 F51  0.3-  0.1+    230329 I52  0.5-  0.3-    230401 695  0.2+  0.3-
    
    Ephemeris:
    2023 FQ13                a,e,i = 0.76, 0.56, 30                  q = 0.3304
    Date    TT    R. A. (2000) Decl.     Delta      r    Elong.  Phase     V
    2023 03 02    16 30 13.8 +22 43 42   0.3634  1.0976    97.2    63.6    23.1
    ...
    2023 03 17    15 27 00.2 +28 10 11   0.2663  1.1539   120.8    47.8    22.1
    ...
    2023 03 25    14 19 39.5 +30 30 12   0.2285  1.1726   136.2    36.1    21.4
    ...
    2023 03 31    13 12 51.6 +30 00 21   0.2153  1.1815   145.0    29.0    21.1
    2023 04 01    13 01 10.4 +29 38 27   0.2147  1.1826   145.7    28.4    21.1
    2023 04 02    12 49 32.0 +29 11 35   0.2146  1.1836   146.2    28.1    21.1
    ...
    2023 04 08    11 44 34.8 +25 04 30   0.2242  1.1868   142.5    30.9    21.3
    ...
    2023 04 16    10 41 12.3 +18 00 12   0.2602  1.1844   129.0    41.2    21.9
    ...
    2023 05 01    09 43 40.8 +07 25 08   0.3648  1.1594   105.5    56.8    23.0
    
    M. P. C. Staff               (C) Copyright 2023 MPC           M.P.E.C. 2023-G04
    


    Read MPEC 2023-G03 Read MPEC 2023-G05


    MPEC number:

    Enter an MPEC number in one of the following forms:

    • 1997-B01 (the full form)
    • J97B01 (the packed version of the full form)
    • B01 (the abbreviated form)